{"data":{"norad_id":60257,"epoch":"2026-05-25T04:07:16.557024Z","epoch_age_seconds":60371,"freshness":"FRESH","line1":"1 60257U 24131C   26145.17171941  .00001255  00000+0  54507-4 0  9997","line2":"2 60257  53.1606  57.5155 0001210  78.1605 281.9531 15.30197940103420","mean_motion":15.3019794,"eccentricity":0.000121,"inclination_deg":53.1606,"raan_deg":57.5155,"arg_perigee_deg":78.1605,"mean_anomaly_deg":281.9531,"bstar":5.4507e-5,"rev_number":10342,"period_min":94.105472393983,"perigee_km":474.39196387026,"apogee_km":476.05047655955,"semimajor_km":6853.3582202149,"source":"CELESTRAK","updated_at":"2026-05-25T13:38:19.198373Z"}}